Location: Tucson
(32.2217°N, 110.9265°W)
Time: 02:34:29
(UTC-07:00)

Tiros 1 - Pass Details

Date: 31 October 2021
Orbit: 630 x 663 km, 48.4° (Epoch: 07 December)

Event Time Altitude Azimuth Distance (km) Brightness Sun altitude
Rises 11:29:43 0° 316° (NW) 2,981 10.2 42.6°
Reaches altitude 10° 11:33:21 10° 344° (NNW) 2,061 9.4 42.7°
Maximum altitude 11:35:35 13° 12° (NNE) 1,855 9.2 42.8°
Drops below altitude 10° 11:37:48 10° 41° (NE) 2,050 9.5 42.9°
Sets 11:41:24 0° 69° (ENE) 2,951 10.4 43.0°
